Wind_Speed
44 38 24 50 18 38 60 48 39 54 48 38 59 65 66 62 53 52 48 49 47 47 48 47 46 45 44 46 45 38 38 39 37 34 35 37 36 36 37 38 38 37 38
50 36 35 36 24 18 37 55 51 39 37 39 40 66 73 64 58 56 54 52 51 52 52 50 53 49 49 51 46 40 39 39 37 35 39 38 40 36 39 40 39 41 43
46 32 38 31 32 22 29 36 37 36 36 40 37 44 46 62 60 57 58 57 55 55 54 53 52 55 59 52 37 41 42 44 38 38 38 38 38 36 36 37 35 36 34
38 32 35 37 24 21 36 33 40 35 38 47 42 39 43 38 38 35 46 53 48 53 59 54 57 56 51 49 42 44 29 26 36 39 35 40 40 40 40 38 36 36 32
38 30 26 36 21 25 31 29 39 39 38 39 43 43 41 42 47 41 53 35 43 40 48 48 46 39 49 45 43 46 46 42 42 37 33 32 39 43 43 41 42 25 26
38 34 25 29 29 16 29 22 32 35 30 40 42 40 37 35 34 31 49 47 46 52 56 57 52 46 43 41 46 52 49 40 46 45 49 46 39 39 28 27 24 19 22
31 23 28 19 10 16 21 23 27 33 28 30 33 42 31 32 44 44 42 35 38 39 45 43 43 50 49 47 40 42 42 35 34 41 44 46 42 44 25 19 23 27 31
18 17 20 11 16 15 10 25 16 19 25 18 24 29 17 26 18 46 49 56 43 37 37 35 41 44 45 43 34 39 29 31 29 20 16 20 21 28 29 25 29 32 33
10 12 4 1 1 5 8 5 4 4 4 13 11 14 15 15 18 16 22 19 24 24 22 27 23 28 31 30 34 28 34 30 30 31 20 22 26 27 27 27 30 33 35
9 5 5 1 3 4 8 14 18 16 14 16 19 16 13 14 20 21 24 28 31 29 28 29 26 26 32 31 31 31 34 34 34 32 28 28 29 30 31 34 35 34 33
3 5 4 0 3 7 10 11 9 11 15 17 18 21 22 23 23 27 27 27 29 30 31 33 34 37 36 38 40 41 41 41 39 36 35 32 34 36 37 36 38 36 36
16 13 10 7 7 7 8 9 12 14 17 19 21 23 25 27 29 33 34 35 40 39 38 40 42 44 45 47 47 49 48 44 43 39 38 36 33 36 36 37 37 37 36
5 4 6 9 9 11 14 18 21 21 22 24 26 26 27 30 31 32 34 39 42 42 43 44 41 42 46 49 51 50 49 46 44 41 39 37 35 34 35 35 36 34 30
5 7 11 12 14 17 19 21 24 27 29 31 34 37 39 40 39 39 39 41 42 42 43 46 46 46 45 45 46 48 47 45 42 40 41 38 35 33 34 34 35 32 28
9 9 6 8 11 13 18 20 22 25 30 34 38 41 44 46 47 48 48 48 49 48 48 48 48 46 46 48 49 48 44 45 43 43 41 39 37 35 36 32 32 30 30
9 11 13 16 19 22 27 29 31 34 37 39 41 42 41 44 49 53 56 56 56 56 55 53 51 50 49 49 50 50 47 46 46 45 42 42 40 37 35 33 32 33 35
21 22 24 24 27 31 33 37 41 46 46 48 49 52 53 51 51 51 52 57 59 60 61 60 56 52 51 51 50 52 50 48 48 45 44 44 44 41 38 37 38 37 39
24 25 27 31 34 37 40 43 48 51 54 56 58 59 59 61 63 61 58 54 56 58 60 62 63 59 53 52 52 53 52 51 50 48 48 48 46 44 42 41 41 41 42
32 34 36 39 44 49 54 58 58 59 61 63 64 67 71 73 75 75 72 67 62 62 63 64 61 62 60 57 55 54 52 52 51 50 49 47 47 45 44 43 44 43 43
38 43 47 51 55 59 63 67 67 65 67 70 74 76 81 84 84 81 78 72 64 60 61 60 65 61 60 61 60 55 53 53 52 50 47 45 46 45 43 45 45 44 42
38 45 48 52 59 63 65 66 68 71 76 81 86 87 86 81 79 79 74 70 66 61 58 58 60 64 60 60 62 60 59 54 50 49 47 46 45 44 44 45 45 43 40
38 41 46 53 58 63 66 68 74 78 83 88 90 90 86 80 74 73 69 66 63 56 52 57 59 60 62 60 57 62 61 59 55 51 48 46 47 46 45 42 42 41 41
44 49 55 59 62 67 70 65 69 78 82 82 81 79 77 69 64 63 61 61 62 58 58 53 63 61 58 59 56 58 62 60 56 53 51 52 50 49 46 43 41 41 39
51 56 61 65 71 72 64 63 69 74 72 71 69 63 56 58 58 63 66 64 61 59 55 53 62 67 62 54 55 55 52 56 57 53 52 51 50 48 45 41 41 38 34
55 61 65 72 73 67 61 58 61 63 64 64 58 48 55 51 56 48 41 37 37 44 48 49 64 64 63 51 49 52 49 50 51 52 52 50 49 46 43 41 39 35 33
62 67 73 76 74 68 61 58 60 61 60 57 49 46 38 44 38 31 26 25 29 39 44 43 52 56 55 48 46 46 48 48 45 46 44 43 44 43 40 40 35 32 31
Wind_Direction
210 209 203 222 224 227 222 214 205 209 213 224 224 221 222 219 221 225 226 231 235 241 244 245 245 246 245 237 248 244 254 258 261 262 266 267 271 275 278 280 279 280 281
204 195 196 204 186 189 231 207 224 218 221 232 236 229 221 218 218 223 227 229 234 239 243 247 248 243 238 239 251 247 256 256 263 265 268 267 272 275 276 276 279 281 278
198 185 201 185 183 192 200 206 216 222 219 225 230 227 220 226 224 224 228 230 234 239 243 244 245 243 246 248 240 250 251 256 253 260 266 270 270 273 272 280 281 284 279
189 183 199 212 203 208 205 200 206 217 212 211 218 218 215 218 225 226 235 232 236 244 244 242 246 253 248 251 239 244 257 261 261 258 258 265 270 275 274 275 283 280 278
200 188 195 219 199 245 209 207 207 209 211 225 226 224 218 218 230 231 231 237 239 235 242 246 251 258 253 250 241 243 252 267 259 257 264 263 271 268 268 269 269 288 299
193 190 213 226 228 246 214 218 214 214 229 238 242 229 223 232 229 237 232 231 248 249 245 253 253 247 253 253 249 246 255 263 278 262 264 264 265 259 273 281 280 292 314
192 204 208 233 205 151 195 209 210 218 221 232 230 222 239 244 242 235 240 235 267 263 261 267 270 264 259 256 275 269 269 252 255 251 259 255 251 256 268 296 310 311 310
197 208 203 210 227 221 166 174 157 174 195 173 212 212 199 236 219 252 250 260 261 256 262 271 272 254 252 263 244 235 243 243 248 249 275 290 300 306 309 309 306 305 302
189 229 189 173 206 311 302 284 359 342 307 243 269 233 250 240 256 238 249 232 247 245 235 254 256 239 239 251 238 256 251 263 279 290 284 275 270 275 285 292 299 297 297
136 92 174 78 317 295 317 322 322 331 321 317 310 301 292 277 269 259 244 254 246 239 248 248 246 247 244 245 258 260 257 257 262 267 264 262 272 279 288 292 290 290 290
247 133 99 291 297 289 283 295 287 290 292 289 285 290 290 282 270 268 264 262 265 256 254 256 252 249 250 250 252 252 255 256 260 256 260 265 270 276 281 285 288 289 293
77 76 65 55 38 17 346 309 296 276 264 262 260 261 261 262 263 257 261 265 263 259 262 258 255 256 250 254 253 255 257 260 261 258 258 263 270 273 278 285 288 289 293
64 0 328 323 315 303 297 293 285 281 280 278 273 269 268 267 267 265 264 263 260 258 258 258 256 257 260 255 257 256 259 260 259 256 260 265 270 275 280 285 287 292 291
0 324 302 278 276 278 277 278 279 280 278 276 278 278 276 272 268 267 267 266 262 261 260 258 257 257 256 257 256 255 257 257 257 261 263 266 269 274 278 282 287 287 286
283 277 287 290 295 301 302 296 291 286 280 278 276 273 269 266 265 263 260 257 259 262 262 262 262 258 256 256 255 256 256 257 258 260 262 262 261 268 273 278 279 279 279
355 333 322 320 315 305 300 295 291 286 285 287 287 285 281 278 271 269 267 263 260 257 252 254 255 257 257 257 258 257 257 258 258 258 259 258 259 263 264 267 273 275 275
336 322 320 313 310 302 296 292 290 289 286 283 282 280 281 283 281 279 271 268 267 265 263 261 255 251 252 253 253 255 257 257 256 255 254 253 252 255 259 264 268 272 276
332 325 321 317 313 309 304 296 291 289 287 288 286 283 280 279 283 284 282 275 270 269 266 263 261 259 252 249 247 247 250 251 250 250 249 249 251 254 257 262 266 269 272
335 330 325 322 316 314 312 306 301 297 292 287 285 283 280 281 283 286 287 285 282 276 270 266 260 258 258 254 251 248 247 247 247 247 248 250 252 253 256 259 263 269 275
334 329 325 322 321 319 315 310 306 300 293 288 285 283 283 284 284 285 287 286 280 274 271 264 261 258 254 254 252 251 249 248 248 248 249 250 252 254 256 260 265 269 272
325 322 318 317 315 311 307 303 298 296 292 287 284 286 293 296 293 290 288 285 281 275 267 261 254 255 258 252 251 251 248 249 249 249 250 251 252 255 257 261 266 268 269
316 310 309 309 310 310 307 304 299 288 280 281 287 291 294 296 294 291 286 279 275 268 254 247 245 248 250 253 249 249 248 250 247 248 251 252 253 255 257 260 262 265 271
316 318 317 316 316 314 313 302 288 283 284 286 292 295 296 296 291 283 277 275 271 266 261 251 236 237 244 247 246 246 247 244 247 248 249 250 250 252 253 255 259 263 264
320 320 317 319 320 320 309 298 293 293 293 295 298 298 296 292 290 289 286 278 265 257 253 251 232 232 229 237 241 244 249 245 241 243 246 248 248 249 251 252 256 257 260
320 320 322 325 324 318 308 300 296 296 296 299 302 301 298 294 297 290 276 274 254 244 240 231 228 231 231 224 233 239 245 246 241 239 241 244 245 247 248 250 251 252 253
324 326 328 329 327 320 314 308 303 300 299 301 303 296 294 299 303 287 276 265 251 244 239 230 224 225 223 222 223 233 238 239 241 242 242 244 246 244 246 248 247 249 254
Height
5667 5673 5681 5692 5701 5707 5715 5721 5728 5732 5738 5744 5749 5753 5760 5767 5772 5777 5782 5787 5791 5796 5799 5801 5804 5806 5809 5810 5812 5816 5819 5820 5820 5821 5821 5821 5822 5823 5822 5822 5822 5821 5820
5659 5670 5679 5689 5695 5704 5709 5715 5724 5730 5733 5736 5740 5745 5750 5756 5762 5767 5773 5777 5781 5786 5789 5792 5794 5797 5799 5800 5804 5810 5811 5814 5813 5815 5813 5814 5815 5817 5815 5813 5813 5813 5811
5656 5665 5676 5685 5690 5698 5705 5713 5717 5723 5725 5730 5735 5740 5744 5748 5754 5759 5763 5767 5772 5776 5780 5783 5785 5786 5788 5793 5795 5800 5803 5804 5805 5805 5803 5803 5804 5807 5807 5805 5804 5804 5801
5656 5666 5675 5680 5684 5693 5700 5705 5711 5716 5720 5725 5730 5737 5740 5745 5751 5752 5755 5758 5764 5767 5770 5772 5773 5777 5779 5784 5786 5790 5790 5795 5796 5796 5796 5794 5795 5798 5798 5798 5798 5793 5795
5655 5666 5674 5679 5685 5690 5696 5701 5707 5713 5718 5720 5726 5731 5734 5738 5743 5745 5749 5753 5757 5761 5764 5765 5767 5769 5772 5776 5778 5782 5784 5786 5788 5788 5786 5787 5788 5789 5788 5788 5789 5786 5786
5658 5666 5673 5679 5686 5685 5689 5696 5703 5708 5713 5715 5719 5725 5732 5733 5735 5738 5744 5748 5752 5755 5757 5759 5761 5763 5766 5769 5773 5773 5775 5777 5777 5777 5779 5779 5780 5777 5779 5779 5778 5780 5780
5661 5669 5674 5679 5684 5683 5688 5695 5698 5703 5706 5710 5716 5722 5725 5729 5733 5735 5738 5743 5746 5748 5749 5749 5752 5754 5759 5762 5765 5766 5766 5768 5765 5765 5767 5767 5768 5768 5768 5770 5770 5770 5770
5663 5669 5676 5678 5682 5684 5686 5690 5694 5698 5704 5707 5712 5718 5721 5720 5725 5729 5733 5737 5737 5739 5739 5743 5741 5745 5749 5753 5753 5759 5756 5755 5755 5755 5756 5758 5758 5761 5762 5761 5762 5762 5761
5663 5668 5672 5678 5680 5684 5686 5688 5693 5696 5699 5702 5708 5713 5714 5717 5719 5721 5725 5729 5729 5731 5731 5735 5735 5733 5738 5745 5743 5744 5746 5746 5746 5746 5749 5750 5753 5754 5754 5753 5753 5754 5752
5664 5668 5673 5677 5681 5686 5687 5687 5688 5691 5695 5699 5701 5705 5708 5711 5714 5716 5717 5720 5721 5721 5723 5724 5725 5727 5730 5732 5733 5734 5735 5736 5738 5739 5741 5743 5744 5744 5744 5744 5744 5743 5741
5664 5669 5675 5681 5683 5683 5685 5688 5692 5693 5696 5698 5700 5701 5702 5705 5708 5709 5711 5711 5714 5715 5716 5718 5720 5720 5722 5722 5725 5725 5725 5727 5728 5729 5731 5732 5733 5734 5734 5734 5733 5732 5729
5667 5671 5674 5677 5679 5680 5683 5687 5687 5690 5693 5695 5695 5696 5696 5697 5697 5699 5699 5701 5704 5705 5706 5706 5709 5711 5709 5711 5711 5713 5714 5715 5716 5717 5719 5720 5720 5722 5721 5722 5722 5721 5717
5666 5669 5670 5672 5673 5677 5680 5682 5686 5685 5684 5685 5687 5687 5688 5689 5689 5689 5689 5689 5691 5691 5692 5694 5694 5696 5698 5699 5701 5701 5702 5704 5705 5707 5707 5710 5710 5710 5711 5710 5710 5709 5707
5665 5665 5666 5669 5671 5674 5675 5676 5676 5677 5677 5677 5676 5675 5676 5676 5676 5677 5677 5678 5680 5682 5682 5681 5682 5684 5685 5686 5686 5688 5689 5692 5693 5696 5698 5699 5699 5699 5700 5699 5700 5699 5699
5665 5668 5669 5671 5673 5673 5672 5672 5671 5670 5670 5667 5664 5664 5663 5662 5660 5661 5662 5662 5663 5664 5667 5669 5671 5671 5672 5672 5673 5674 5676 5680 5682 5684 5686 5687 5687 5687 5689 5689 5690 5690 5689
5666 5667 5667 5665 5665 5667 5665 5664 5663 5662 5658 5654 5652 5651 5648 5647 5645 5645 5646 5647 5647 5646 5645 5648 5651 5654 5657 5660 5660 5662 5665 5667 5669 5671 5673 5675 5676 5676 5677 5678 5677 5679 5679
5660 5663 5660 5660 5655 5653 5653 5652 5649 5645 5643 5642 5638 5636 5633 5630 5629 5628 5628 5629 5630 5631 5633 5634 5634 5636 5639 5642 5643 5646 5650 5654 5656 5657 5659 5661 5664 5665 5665 5666 5668 5667 5668
5653 5654 5654 5650 5648 5647 5644 5643 5640 5632 5626 5620 5616 5614 5613 5611 5609 5609 5610 5610 5611 5612 5614 5616 5618 5620 5621 5623 5625 5627 5632 5635 5639 5641 5645 5647 5649 5652 5653 5653 5653 5656 5655
5650 5649 5645 5640 5637 5633 5625 5621 5616 5611 5607 5601 5596 5591 5588 5587 5585 5584 5585 5587 5589 5591 5593 5595 5598 5601 5605 5607 5608 5612 5615 5619 5623 5626 5630 5632 5635 5637 5638 5640 5644 5643 5642
5637 5632 5627 5623 5619 5613 5607 5601 5593 5587 5583 5574 5568 5565 5561 5558 5558 5557 5558 5560 5564 5567 5570 5574 5578 5581 5585 5589 5592 5598 5601 5605 5608 5611 5615 5618 5622 5624 5625 5628 5630 5632 5629
5639 5630 5624 5619 5612 5603 5595 5587 5577 5567 5554 5544 5541 5539 5534 5530 5528 5529 5530 5530 5532 5536 5542 5549 5555 5560 5566 5569 5574 5580 5585 5591 5595 5598 5602 5605 5609 5611 5613 5615 5619 5619 5618
5640 5635 5628 5620 5613 5602 5589 5575 5560 5545 5534 5526 5520 5515 5511 5507 5502 5497 5499 5503 5505 5508 5514 5521 5529 5537 5545 5551 5556 5562 5567 5573 5579 5583 5588 5590 5595 5599 5601 5602 5604 5607 5607
5632 5626 5618 5609 5598 5584 5569 5555 5542 5530 5520 5511 5503 5495 5488 5482 5477 5473 5473 5471 5474 5481 5490 5497 5505 5515 5524 5534 5539 5543 5547 5557 5565 5569 5573 5577 5582 5586 5587 5589 5591 5594 5596
5618 5610 5600 5589 5576 5560 5544 5529 5517 5506 5497 5491 5483 5476 5469 5463 5456 5449 5446 5444 5448 5454 5464 5473 5482 5491 5503 5514 5521 5528 5533 5542 5549 5554 5559 5563 5568 5573 5576 5577 5578 5580 5584
5601 5591 5580 5566 5551 5536 5521 5508 5497 5488 5479 5472 5464 5457 5451 5445 5438 5430 5426 5423 5424 5430 5439 5448 5459 5471 5486 5497 5505 5513 5520 5528 5534 5538 5545 5550 5555 5560 5565 5564 5564 5568 5572
5584 5572 5558 5543 5527 5512 5498 5487 5476 5467 5459 5454 5448 5442 5438 5433 5424 5417 5415 5414 5416 5419 5424 5433 5446 5461 5473 5481 5490 5500 5508 5515 5520 5527 5533 5538 5543 5548 5551 5552 5554 5558 5560